• en Suisse
  • Liste des pays
  • À 7 jours
  • Température de l'eau
  • Carte satellitaire
  • Carte météo
  • Widgets météo
  • user-avatar
    Se connecter

    Météo par heure à Bukavu

    Ce jour, 18 Septembre, Mardi

    Heure Température Précipitation Vent Pression Humidité
    00:00 +20°C° 0 mm 0 m/s 687 mmHg 97%
    01:00 +19°C° 0 mm 0 m/s 687 mmHg 96%
    02:00 +19°C° 0 mm 0 m/s 687 mmHg 96%
    03:00 +19°C° 0 mm 0 m/s 687 mmHg 96%
    04:00 +19°C° 0 mm 0 m/s 687 mmHg 96%
    05:00 +18°C° 0 mm 0 m/s 687 mmHg 96%
    06:00 +20°C° 0 mm 0 m/s 687 mmHg 93%
    07:00 +21°C° 0 mm 0 m/s 688 mmHg 90%
    08:00 +23°C° 0 mm 0 m/s 689 mmHg 84%
    09:00 +24°C° 0.8 mm 0 m/s 689 mmHg 83%
    10:00 +27°C° 0.8 mm 1 m/s 689 mmHg 82%
    11:00 +28°C° 0.8 mm 1 m/s 689 mmHg 81%
    12:00 +28°C° 1.1 mm 1 m/s 688 mmHg 79%
    13:00 +28°C° 1.1 mm 1 m/s 688 mmHg 77%
    14:00 +29°C° 0 mm 1 m/s 687 mmHg 80%
    15:00 +28°C° 1 mm 1 m/s 687 mmHg 82%
    16:00 +28°C° 1 mm 1 m/s 687 mmHg 83%
    17:00 +25°C° 1 mm 0 m/s 687 mmHg 84%
    18:00 +24°C° 0.2 mm 0 m/s 687 mmHg 87%
    19:00 +22°C° 0.2 mm 0 m/s 688 mmHg 91%
    20:00 +21°C° 0.2 mm 0 m/s 688 mmHg 94%
    21:00 +20°C° 0 mm 0 m/s 688 mmHg 94%
    22:00 +20°C° 0 mm 0 m/s 688 mmHg 94%
    23:00 +20°C° 0 mm 0 m/s 688 mmHg 94%

    Demain, 19 Septembre, Mercredi

    Heure Température Précipitation Vent Pression Humidité
    00:00 +20°C° 0.2 mm 0 m/s 687 mmHg 95%
    01:00 +19°C° 0.2 mm 0 m/s 687 mmHg 95%
    02:00 +19°C° 0.2 mm 0 m/s 687 mmHg 95%
    03:00 +19°C° 0.1 mm 0 m/s 687 mmHg 96%
    04:00 +18°C° 0.1 mm 0 m/s 687 mmHg 96%
    05:00 +18°C° 0.1 mm 0 m/s 687 mmHg 96%
    06:00 +19°C° 0 mm 0 m/s 687 mmHg 92%
    07:00 +21°C° 0 mm 0 m/s 688 mmHg 89%
    08:00 +22°C° 0 mm 0 m/s 689 mmHg 85%
    09:00 +25°C° 0.3 mm 0 m/s 689 mmHg 76%
    10:00 +27°C° 0.3 mm 0 m/s 689 mmHg 68%
    11:00 +30°C° 0.3 mm 0 m/s 690 mmHg 59%
    12:00 +32°C° 0.2 mm 1 m/s 689 mmHg 56%
    13:00 +32°C° 0.2 mm 1 m/s 688 mmHg 54%
    14:00 +32°C° 0.2 mm 1 m/s 688 mmHg 51%
    15:00 +29°C° 1.1 mm 1 m/s 687 mmHg 64%
    16:00 +27°C° 1.1 mm 1 m/s 687 mmHg 76%
    17:00 +25°C° 1.1 mm 1 m/s 686 mmHg 89%
    18:00 +24°C° 4.5 mm 1 m/s 687 mmHg 92%
    19:00 +23°C° 4.5 mm 1 m/s 687 mmHg 94%
    20:00 +22°C° 4.5 mm 1 m/s 687 mmHg 97%
    21:00 +22°C° 0.8 mm 1 m/s 688 mmHg 97%
    22:00 +22°C° 0.8 mm 1 m/s 688 mmHg 97%
    23:00 +19°C° 0.8 mm 0 m/s 689 mmHg 98%

    Après-demain, 20 Septembre, Jeudi

    Heure Température Précipitation Vent Pression Humidité
    00:00 +19°C° 0 mm 0 m/s 688 mmHg 98%
    01:00 +19°C° 0 mm 0 m/s 688 mmHg 98%
    02:00 +18°C° 0 mm 0 m/s 687 mmHg 98%
    03:00 +18°C° 0 mm 0 m/s 687 mmHg 98%
    04:00 +18°C° 0 mm 0 m/s 687 mmHg 97%
    05:00 +18°C° 0 mm 0 m/s 687 mmHg 97%
    06:00 +19°C° 0 mm 0 m/s 687 mmHg 96%
    07:00 +20°C° 0 mm 0 m/s 688 mmHg 94%
    08:00 +23°C° 0 mm 1 m/s 689 mmHg 92%
    09:00 +26°C° 0 mm 1 m/s 689 mmHg 77%
    10:00 +28°C° 0 mm 0 m/s 690 mmHg 63%
    11:00 +31°C° 0 mm 0 m/s 690 mmHg 48%
    12:00 +31°C° 0 mm 0 m/s 689 mmHg 49%
    13:00 +31°C° 0 mm 0 m/s 688 mmHg 49%
    14:00 +30°C° 0 mm 0 m/s 687 mmHg 50%
    15:00 +30°C° 0 mm 0 m/s 687 mmHg 53%
    16:00 +29°C° 0 mm 0 m/s 686 mmHg 56%
    17:00 +31°C° 0 mm 1 m/s 686 mmHg 59%
    18:00 +28°C° 3.5 mm 1 m/s 686 mmHg 70%
    19:00 +26°C° 3.5 mm 1 m/s 687 mmHg 80%
    20:00 +23°C° 3.5 mm 2 m/s 687 mmHg 91%
    21:00 +23°C° 1.1 mm 1 m/s 687 mmHg 92%
    22:00 +22°C° 1.1 mm 1 m/s 688 mmHg 94%
    23:00 +19°C° 1.1 mm 0 m/s 688 mmHg 95%

    21 Septembre, Vendredi

    Heure Température Précipitation Vent Pression Humidité
    00:00 +19°C° 0 mm 0 m/s 687 mmHg 95%
    01:00 +21°C° 0 mm 1 m/s 687 mmHg 95%
    02:00 +20°C° 0 mm 1 m/s 686 mmHg 95%
    03:00 +20°C° 0 mm 1 m/s 686 mmHg 95%
    04:00 +18°C° 0 mm 0 m/s 686 mmHg 94%
    05:00 +18°C° 0 mm 0 m/s 686 mmHg 94%
    06:00 +19°C° 0 mm 0 m/s 687 mmHg 88%
    07:00 +21°C° 0 mm 0 m/s 688 mmHg 82%
    08:00 +23°C° 0 mm 0 m/s 689 mmHg 77%
    09:00 +26°C° 0 mm 0 m/s 689 mmHg 64%
    10:00 +29°C° 0 mm 0 m/s 690 mmHg 52%
    11:00 +33°C° 0 mm 0 m/s 690 mmHg 40%
    12:00 +35°C° 0 mm 1 m/s 689 mmHg 37%
    13:00 +35°C° 0 mm 1 m/s 688 mmHg 35%
    14:00 +36°C° 0 mm 1 m/s 687 mmHg 33%
    15:00 +34°C° 0 mm 1 m/s 687 mmHg 41%
    16:00 +32°C° 0 mm 1 m/s 686 mmHg 49%
    17:00 +28°C° 0 mm 0 m/s 686 mmHg 57%
    18:00 +28°C° 1.6 mm 1 m/s 686 mmHg 67%
    19:00 +26°C° 1.6 mm 2 m/s 686 mmHg 76%
    20:00 +23°C° 1.6 mm 2 m/s 686 mmHg 86%
    21:00 +23°C° 1.7 mm 2 m/s 687 mmHg 88%
    22:00 +22°C° 1.7 mm 1 m/s 687 mmHg 91%
    23:00 +22°C° 1.7 mm 1 m/s 687 mmHg 93%

    22 Septembre, Samedi

    Heure Température Précipitation Vent Pression Humidité
    00:00 +22°C° 0.1 mm 1 m/s 687 mmHg 92%
    01:00 +21°C° 0.1 mm 1 m/s 686 mmHg 92%
    02:00 +19°C° 0.1 mm 0 m/s 686 mmHg 91%
    03:00 +19°C° 0.1 mm 0 m/s 686 mmHg 91%
    04:00 +19°C° 0.1 mm 0 m/s 686 mmHg 91%
    05:00 +19°C° 0.1 mm 0 m/s 686 mmHg 91%
    06:00 +20°C° 0 mm 0 m/s 687 mmHg 87%
    07:00 +22°C° 0 mm 0 m/s 688 mmHg 83%
    08:00 +23°C° 0 mm 0 m/s 688 mmHg 78%
    09:00 +28°C° 0 mm 1 m/s 689 mmHg 66%
    10:00 +31°C° 0 mm 1 m/s 689 mmHg 54%
    11:00 +34°C° 0 mm 1 m/s 689 mmHg 42%
    12:00 +34°C° 0 mm 1 m/s 688 mmHg 42%
    13:00 +34°C° 0 mm 1 m/s 687 mmHg 41%
    14:00 +32°C° 0 mm 0 m/s 687 mmHg 40%
    15:00 +33°C° 0 mm 1 m/s 686 mmHg 47%
    16:00 +31°C° 0 mm 1 m/s 686 mmHg 54%
    17:00 +30°C° 0 mm 1 m/s 686 mmHg 61%
    18:00 +28°C° 0.1 mm 1 m/s 686 mmHg 68%
    19:00 +26°C° 0.1 mm 1 m/s 686 mmHg 75%
    20:00 +24°C° 0.1 mm 1 m/s 686 mmHg 82%
    21:00 +24°C° 0.4 mm 1 m/s 686 mmHg 86%
    22:00 +23°C° 0.4 mm 1 m/s 687 mmHg 90%
    23:00 +22°C° 0.4 mm 1 m/s 687 mmHg 94%

    23 Septembre, Dimanche

    Heure Température Précipitation Vent Pression Humidité
    00:00 +20°C° 0.2 mm 0 m/s 686 mmHg 94%
    01:00 +20°C° 0.2 mm 0 m/s 686 mmHg 95%
    02:00 +19°C° 0.2 mm 0 m/s 686 mmHg 95%
    03:00 +19°C° 0.6 mm 0 m/s 686 mmHg 96%
    04:00 +19°C° 0.6 mm 0 m/s 686 mmHg 97%
    05:00 +18°C° 0.6 mm 0 m/s 686 mmHg 98%
    06:00 +20°C° 0.2 mm 0 m/s 687 mmHg 95%
    07:00 +21°C° 0.2 mm 0 m/s 688 mmHg 93%
    08:00 +22°C° 0.2 mm 0 m/s 689 mmHg 90%
    09:00 +24°C° 0.9 mm 0 m/s 689 mmHg 84%
    10:00 +26°C° 0.9 mm 0 m/s 689 mmHg 78%
    11:00 +28°C° 0.9 mm 0 m/s 689 mmHg 72%
    12:00 +29°C° 0.2 mm 0 m/s 688 mmHg 63%
    13:00 +32°C° 0.2 mm 1 m/s 688 mmHg 53%
    14:00 +33°C° 0.2 mm 1 m/s 687 mmHg 44%
    15:00 +32°C° 0 mm 1 m/s 687 mmHg 51%
    16:00 +31°C° 0 mm 1 m/s 687 mmHg 58%
    17:00 +29°C° 0 mm 1 m/s 687 mmHg 64%
    18:00 +27°C° 1.5 mm 1 m/s 687 mmHg 73%
    19:00 +25°C° 1.5 mm 1 m/s 687 mmHg 82%
    20:00 +23°C° 1.5 mm 1 m/s 687 mmHg 90%
    21:00 +23°C° 0.4 mm 1 m/s 687 mmHg 92%
    22:00 +22°C° 0.4 mm 1 m/s 687 mmHg 94%
    23:00 +20°C° 0.4 mm 0 m/s 687 mmHg 95%
    Voir plus